Location: Bronschhofen
(47.4788°N, 9.0353°E)
Time: 20:26:53
(UTC+00:00)

Cosmos 1703 - Pass Details

Date: 20 May 2022
Orbit: 518 x 535 km, 82.5° (Epoch: 06 July)

Event Time Altitude Azimuth Distance (km) Brightness Sun altitude
Exits shadow 02:44:11 - 186° (S) 2,291 6.0 -8.6°
Reaches altitude 10° 02:45:24 10° 185° (S) 1,788 5.5 -8.4°
Maximum altitude 02:49:20 83° 98° (E) 546 3.3 -7.9°
Drops below altitude 10° 02:53:18 10° 11° (N) 1,801 6.8 -7.4°
Sets 02:55:27 0° 11° (N) 2,696 7.7 -7.1°
